Weather History for Kansas City, MO

Change the Weather History Date:

Wednesday, January 29, 2014

  Actual Average Record
Temperature  
Mean Temperature 29 °F -  
Max Temperature 44 °F 38 °F 69 °F (2013)
Min Temperature 14 °F 23 °F 3 °F (2004)
Degree Days  
Heating Degree Days 36    
Moisture  
Dew Point 6 °F    
Average Humidity 39    
Maximum Humidity 57    
Minimum Humidity 21    
Precipitation  
Precipitation 0.00 in - - ()
Sea Level Pressure  
Sea Level Pressure 30.15 in    
Wind  
Wind Speed 9 mph (SSW)    
Max Wind Speed 21 mph    
Max Gust Speed 32 mph    
Visibility 10 miles    
Events      
Averages and records for this station are not official NWS values.
T = Trace of Precipitation, MM = Missing Value Source: NWS Daily Summary

Daily Weather History Graph

Daily Weather History Graph

Search for Another Location

Airport:

Trip Planner

Search our weather history database for the weather conditions in past years. The results will help you decide how hot, cold, wet, or windy it might be!

Date:

Astronomy

Jan. 29, 2014 Rise Set
Actual Time 7:27 AM CST 5:35 PM CST
Civil Twilight 6:59 AM CST 6:04 PM CST
Nautical Twilight 6:27 AM CST 6:36 PM CST
Astronomical Twilight 5:55 AM CST 7:08 PM CST
Moon 6:04 AM CST (1/29) 4:36 PM CST (1/29)
Length of Visible Light 11h 05m
Length of Day
10h 08m
Waning Crescent, 2% of the Moon is Illuminated
Jan 29
Waning Crescent
Jan 30
New
Feb 6
First Quarter
Feb 14
Full
Feb 22
Last Quarter

Hourly Weather History & Observations

Time (CST) Temp. Windchill Dew Point Humidity Pressure Visibility Wind Dir Wind Speed Gust Speed Precip Events Conditions
12:54 AM 15.1 °F 5.2 °F 1.0 °F 54% 30.34 in 10.0 mi SSW 6.9 mph - N/A   Clear
1:54 AM 15.1 °F 7.7 °F -0.9 °F 49% 30.33 in 10.0 mi SSW 4.6 mph - N/A   Clear
2:54 AM 14.0 °F 3.9 °F -0.0 °F 54% 30.33 in 10.0 mi SSW 6.9 mph - N/A   Clear
3:54 AM 14.0 °F 6.5 °F -0.9 °F 52% 30.30 in 10.0 mi SSW 4.6 mph - N/A   Clear
4:54 AM 15.1 °F - -0.0 °F 51% 30.30 in 10.0 mi Calm Calm - N/A   Clear
5:54 AM 15.1 °F 7.7 °F -0.0 °F 51% 30.29 in 10.0 mi SSW 4.6 mph - N/A   Clear
6:54 AM 16.0 °F 10.4 °F 1.0 °F 52% 30.28 in 10.0 mi SW 3.5 mph - N/A   Clear
7:54 AM 16.0 °F 7.4 °F 3.0 °F 57% 30.27 in 10.0 mi SSW 5.8 mph - N/A   Clear
8:54 AM 23.0 °F 18.4 °F 7.0 °F 50% 30.25 in 10.0 mi SSW 3.5 mph - N/A   Clear
9:54 AM 28.9 °F 19.8 °F 9.0 °F 43% 30.25 in 10.0 mi SSW 10.4 mph - N/A   Clear
10:54 AM 33.1 °F 24.9 °F 12.0 °F 42% 30.24 in 10.0 mi SW 10.4 mph - N/A   Clear
11:54 AM 37.9 °F 29.2 °F 10.9 °F 33% 30.22 in 10.0 mi SW 15.0 mph 23.0 mph N/A   Clear
12:54 PM 41.0 °F 32.8 °F 10.0 °F 28% 30.16 in 10.0 mi South 16.1 mph 23.0 mph N/A   Clear
1:54 PM 43.0 °F 35.1 °F 9.0 °F 25% 30.12 in 10.0 mi South 17.3 mph - N/A   Clear
2:54 PM 44.1 °F 36.5 °F 7.0 °F 22% 30.07 in 10.0 mi SSW 17.3 mph - N/A   Clear
3:54 PM 44.1 °F 36.2 °F 6.1 °F 21% 30.05 in 10.0 mi SSW 18.4 mph 28.8 mph N/A   Clear
4:54 PM 43.0 °F 36.4 °F 7.0 °F 23% 30.01 in 10.0 mi South 12.7 mph - N/A   Clear
5:54 PM 41.0 °F 33.1 °F 8.1 °F 26% 30.00 in 10.0 mi South 15.0 mph 20.7 mph N/A   Clear
6:54 PM 39.0 °F 29.6 °F 8.1 °F 28% 30.00 in 10.0 mi South 18.4 mph 26.5 mph N/A   Clear
7:54 PM 37.9 °F 27.9 °F 9.0 °F 30% 29.97 in 10.0 mi South 19.6 mph 32.2 mph N/A   Clear
8:54 PM 36.0 °F 25.3 °F 10.0 °F 34% 29.95 in 10.0 mi South 19.6 mph 28.8 mph N/A   Clear
9:54 PM 35.1 °F 24.5 °F 10.9 °F 37% 29.94 in 10.0 mi SSW 18.4 mph 26.5 mph N/A   Clear
10:54 PM 35.1 °F 24.1 °F 10.9 °F 37% 29.92 in 10.0 mi South 19.6 mph 31.1 mph N/A   Clear
11:54 PM 36.0 °F 25.0 °F 10.0 °F 34% 29.89 in 10.0 mi South 20.7 mph 26.5 mph N/A   Clear